Year,Month,Day,Hour,Minute,Value (Times are PST for temperature in C)
2015,06,13,00,00,11.90
2015,06,13,00,01,11.90
2015,06,13,00,02,11.80
2015,06,13,00,03,11.80
2015,06,13,00,04,11.80
2015,06,13,00,05,11.80
2015,06,13,00,06,11.70
2015,06,13,00,07,11.70
2015,06,13,00,08,11.70
2015,06,13,00,09,11.70
2015,06,13,00,10,11.60
2015,06,13,00,11,11.60
2015,06,13,00,12,11.60
2015,06,13,00,13,11.50
2015,06,13,00,14,11.50
2015,06,13,00,15,11.40
2015,06,13,00,16,11.40
2015,06,13,00,17,11.40
2015,06,13,00,18,11.40
2015,06,13,00,19,11.30
2015,06,13,00,20,11.30
2015,06,13,00,21,11.30
2015,06,13,00,22,11.30
2015,06,13,00,23,11.20
2015,06,13,00,24,11.20
2015,06,13,00,25,11.20
2015,06,13,00,26,11.20
2015,06,13,00,27,11.10
2015,06,13,00,28,11.10
2015,06,13,00,29,11.10
2015,06,13,00,30,11.10
2015,06,13,00,31,11.10
2015,06,13,00,32,11.10
2015,06,13,00,33,11.10
2015,06,13,00,34,11.00
2015,06,13,00,35,11.00
2015,06,13,00,36,11.00
2015,06,13,00,37,11.00
2015,06,13,00,38,11.00
2015,06,13,00,39,11.00
2015,06,13,00,40,10.90
2015,06,13,00,41,10.90
2015,06,13,00,42,10.90
2015,06,13,00,43,10.90
2015,06,13,00,44,10.90
2015,06,13,00,45,10.90
2015,06,13,00,46,10.80
2015,06,13,00,47,10.80
2015,06,13,00,48,10.80
2015,06,13,00,49,10.80
2015,06,13,00,50,10.80
2015,06,13,00,51,10.70
2015,06,13,00,52,10.70
2015,06,13,00,53,10.70
2015,06,13,00,54,10.70
2015,06,13,00,55,10.70
2015,06,13,00,56,10.60
2015,06,13,00,57,10.60
2015,06,13,00,58,10.60
2015,06,13,00,59,10.60
2015,06,13,01,00,10.60
2015,06,13,01,01,10.60
2015,06,13,01,02,10.60
2015,06,13,01,03,10.60
2015,06,13,01,04,10.60
2015,06,13,01,05,10.60
2015,06,13,01,06,10.60
2015,06,13,01,07,10.60
2015,06,13,01,08,10.60
2015,06,13,01,09,10.60
2015,06,13,01,10,10.60
2015,06,13,01,11,10.60
2015,06,13,01,12,10.60
2015,06,13,01,13,10.60
2015,06,13,01,14,10.60
2015,06,13,01,15,10.60
2015,06,13,01,16,10.60
2015,06,13,01,17,10.60
2015,06,13,01,18,10.60
2015,06,13,01,19,10.60
2015,06,13,01,20,10.60
2015,06,13,01,21,10.60
2015,06,13,01,22,10.50
2015,06,13,01,23,10.50
2015,06,13,01,24,10.50
2015,06,13,01,25,10.50
2015,06,13,01,26,10.40
2015,06,13,01,27,10.40
2015,06,13,01,28,10.40
2015,06,13,01,29,10.40
2015,06,13,01,30,10.40
2015,06,13,01,31,10.30
2015,06,13,01,32,10.30
2015,06,13,01,33,10.30
2015,06,13,01,34,10.30
2015,06,13,01,35,10.30
2015,06,13,01,36,10.30
2015,06,13,01,37,10.20
2015,06,13,01,38,10.20
2015,06,13,01,39,10.20
2015,06,13,01,40,10.20
2015,06,13,01,41,10.20
2015,06,13,01,42,10.20
2015,06,13,01,43,10.10
2015,06,13,01,44,10.10
2015,06,13,01,45,10.10
2015,06,13,01,46,10.10
2015,06,13,01,47,10.10
2015,06,13,01,48,10.00
2015,06,13,01,49,10.00
2015,06,13,01,50,10.00
2015,06,13,01,51,10.00
2015,06,13,01,52,9.90
2015,06,13,01,53,10.00
2015,06,13,01,54,10.00
2015,06,13,01,55,10.00
2015,06,13,01,56,10.00
2015,06,13,01,57,10.00
2015,06,13,01,58,10.00
2015,06,13,01,59,10.00
2015,06,13,02,00,10.00
2015,06,13,02,01,10.00
2015,06,13,02,02,10.00
2015,06,13,02,03,10.00
2015,06,13,02,04,10.00
2015,06,13,02,05,9.90
2015,06,13,02,06,9.90
2015,06,13,02,07,9.90
2015,06,13,02,08,9.90
2015,06,13,02,09,9.90
2015,06,13,02,10,9.90
2015,06,13,02,11,9.90
2015,06,13,02,12,9.90
2015,06,13,02,13,9.90
2015,06,13,02,14,9.90
2015,06,13,02,15,9.90
2015,06,13,02,16,9.90
2015,06,13,02,17,9.90
2015,06,13,02,18,9.80
2015,06,13,02,19,9.80
2015,06,13,02,20,9.80
2015,06,13,02,21,9.80
2015,06,13,02,22,9.80
2015,06,13,02,23,9.80
2015,06,13,02,24,9.70
2015,06,13,02,25,9.70
2015,06,13,02,26,9.70
2015,06,13,02,27,9.70
2015,06,13,02,28,9.60
2015,06,13,02,29,9.60
2015,06,13,02,30,9.60
2015,06,13,02,31,9.60
2015,06,13,02,32,9.50
2015,06,13,02,33,9.50
2015,06,13,02,34,9.50
2015,06,13,02,35,9.50
2015,06,13,02,36,9.40
2015,06,13,02,37,9.40
2015,06,13,02,38,9.40
2015,06,13,02,39,9.40
2015,06,13,02,40,9.40
2015,06,13,02,41,9.40
2015,06,13,02,42,9.40
2015,06,13,02,43,9.40
2015,06,13,02,44,9.40
2015,06,13,02,45,9.40
2015,06,13,02,46,9.40
2015,06,13,02,47,9.40
2015,06,13,02,48,9.40
2015,06,13,02,49,9.40
2015,06,13,02,50,9.40
2015,06,13,02,51,9.40
2015,06,13,02,52,9.40
2015,06,13,02,53,9.30
2015,06,13,02,54,9.30
2015,06,13,02,55,9.30
2015,06,13,02,56,9.30
2015,06,13,02,57,9.30
2015,06,13,02,58,9.30
2015,06,13,02,59,9.30
2015,06,13,03,00,9.30
2015,06,13,03,01,9.20
2015,06,13,03,02,9.20
2015,06,13,03,03,9.20
2015,06,13,03,04,9.20
2015,06,13,03,05,9.20
2015,06,13,03,06,9.20
2015,06,13,03,07,9.20
2015,06,13,03,08,9.20
2015,06,13,03,09,9.10
2015,06,13,03,10,9.10
2015,06,13,03,11,9.10
2015,06,13,03,12,9.10
2015,06,13,03,13,9.10
2015,06,13,03,14,9.10
2015,06,13,03,15,9.10
2015,06,13,03,16,9.10
2015,06,13,03,17,9.10
2015,06,13,03,18,9.10
2015,06,13,03,19,9.10
2015,06,13,03,20,9.10
2015,06,13,03,21,9.10
2015,06,13,03,22,9.10
2015,06,13,03,23,9.10
2015,06,13,03,24,9.10
2015,06,13,03,25,9.00
2015,06,13,03,26,9.00
2015,06,13,03,27,9.00
2015,06,13,03,28,9.00
2015,06,13,03,29,9.00
2015,06,13,03,30,8.90
2015,06,13,03,31,8.90
2015,06,13,03,32,8.90
2015,06,13,03,33,8.90
2015,06,13,03,34,8.90
2015,06,13,03,35,8.90
2015,06,13,03,36,8.90
2015,06,13,03,37,8.90
2015,06,13,03,38,8.90
2015,06,13,03,39,8.90
2015,06,13,03,40,8.90
2015,06,13,03,41,8.90
2015,06,13,03,42,8.90
2015,06,13,03,43,8.90
2015,06,13,03,44,8.90
2015,06,13,03,45,8.80
2015,06,13,03,46,8.80
2015,06,13,03,47,8.80
2015,06,13,03,48,8.80
2015,06,13,03,49,8.80
2015,06,13,03,50,8.80
2015,06,13,03,51,8.80
2015,06,13,03,52,8.70
2015,06,13,03,53,8.70
2015,06,13,03,54,8.70
2015,06,13,03,55,8.70
2015,06,13,03,56,8.70
2015,06,13,03,57,8.70
2015,06,13,03,58,8.70
2015,06,13,03,59,8.70
2015,06,13,04,00,8.70
2015,06,13,04,01,8.60
2015,06,13,04,02,8.60
2015,06,13,04,03,8.60
2015,06,13,04,04,8.60
2015,06,13,04,05,8.60
2015,06,13,04,06,8.60
2015,06,13,04,07,8.60
2015,06,13,04,08,8.60
2015,06,13,04,09,8.50
2015,06,13,04,10,8.50
2015,06,13,04,11,8.50
2015,06,13,04,12,8.50
2015,06,13,04,13,8.40
2015,06,13,04,14,8.40
2015,06,13,04,15,8.40
2015,06,13,04,16,8.40
2015,06,13,04,17,8.40
2015,06,13,04,18,8.40
2015,06,13,04,19,8.40
2015,06,13,04,20,8.40
2015,06,13,04,21,8.40
2015,06,13,04,22,8.40
2015,06,13,04,23,8.40
2015,06,13,04,24,8.40
2015,06,13,04,25,8.40
2015,06,13,04,26,8.40
2015,06,13,04,27,8.30
2015,06,13,04,28,8.30
2015,06,13,04,29,8.30
2015,06,13,04,30,8.30
2015,06,13,04,31,8.30
2015,06,13,04,32,8.30
2015,06,13,04,33,8.30
2015,06,13,04,34,8.30
2015,06,13,04,35,8.30
2015,06,13,04,36,8.30
2015,06,13,04,37,8.20
2015,06,13,04,38,8.20
2015,06,13,04,39,8.20
2015,06,13,04,40,8.20
2015,06,13,04,41,8.20
2015,06,13,04,42,8.20
2015,06,13,04,43,8.20
2015,06,13,04,44,8.20
2015,06,13,04,45,8.20
2015,06,13,04,46,8.20
2015,06,13,04,47,8.20
2015,06,13,04,48,8.20
2015,06,13,04,49,8.20
2015,06,13,04,50,8.20
2015,06,13,04,51,8.20
2015,06,13,04,52,8.10
2015,06,13,04,53,8.10
2015,06,13,04,54,8.10
2015,06,13,04,55,8.10
2015,06,13,04,56,8.10
2015,06,13,04,57,8.10
2015,06,13,04,58,8.10
2015,06,13,04,59,8.10
2015,06,13,05,00,8.00
2015,06,13,05,01,8.00
2015,06,13,05,02,8.00
2015,06,13,05,03,8.00
2015,06,13,05,04,7.90
2015,06,13,05,05,7.90
2015,06,13,05,06,7.90
2015,06,13,05,07,7.90
2015,06,13,05,08,7.90
2015,06,13,05,09,7.90
2015,06,13,05,10,7.90
2015,06,13,05,11,7.90
2015,06,13,05,12,7.90
2015,06,13,05,13,7.90
2015,06,13,05,14,7.90
2015,06,13,05,15,7.90
2015,06,13,05,16,7.90
2015,06,13,05,17,7.90
2015,06,13,05,18,7.90
2015,06,13,05,19,7.90
2015,06,13,05,20,7.90
2015,06,13,05,21,7.90
2015,06,13,05,22,7.90
2015,06,13,05,23,7.90
2015,06,13,05,24,7.90
2015,06,13,05,25,7.90
2015,06,13,05,26,7.90
2015,06,13,05,27,7.90
2015,06,13,05,28,7.90
2015,06,13,05,29,7.90
2015,06,13,05,30,7.90
2015,06,13,05,31,7.90
2015,06,13,05,32,7.90
2015,06,13,05,33,7.90
2015,06,13,05,34,7.90
2015,06,13,05,35,7.90
2015,06,13,05,36,7.90
2015,06,13,05,37,7.90
2015,06,13,05,38,7.90
2015,06,13,05,39,7.90
2015,06,13,05,40,7.90
2015,06,13,05,41,7.90
2015,06,13,05,42,7.90
2015,06,13,05,43,7.90
2015,06,13,05,44,7.90
2015,06,13,05,45,7.90
2015,06,13,05,46,7.90
2015,06,13,05,47,7.90
2015,06,13,05,48,7.90
2015,06,13,05,49,7.90
2015,06,13,05,50,7.90
2015,06,13,05,51,7.90
2015,06,13,05,52,7.90
2015,06,13,05,53,7.90
2015,06,13,05,54,7.90
2015,06,13,05,55,7.90
2015,06,13,05,56,7.90
2015,06,13,05,57,7.90
2015,06,13,05,58,7.90
2015,06,13,05,59,8.00
2015,06,13,06,00,8.00
2015,06,13,06,01,8.00
2015,06,13,06,02,8.00
2015,06,13,06,03,8.00
2015,06,13,06,04,8.00
2015,06,13,06,05,8.00
2015,06,13,06,06,8.00
2015,06,13,06,07,8.00
2015,06,13,06,08,8.00
2015,06,13,06,09,8.00
2015,06,13,06,10,8.00
2015,06,13,06,11,8.10
2015,06,13,06,12,8.10
2015,06,13,06,13,8.10
2015,06,13,06,14,8.10
2015,06,13,06,15,8.20
2015,06,13,06,16,8.20
2015,06,13,06,17,8.20
2015,06,13,06,18,8.20
2015,06,13,06,19,8.20
2015,06,13,06,20,8.30
2015,06,13,06,21,8.30
2015,06,13,06,22,8.30
2015,06,13,06,23,8.30
2015,06,13,06,24,8.30
2015,06,13,06,25,8.30
2015,06,13,06,26,8.30
2015,06,13,06,27,8.40
2015,06,13,06,28,8.40
2015,06,13,06,29,8.40
2015,06,13,06,30,8.40
2015,06,13,06,31,8.40
2015,06,13,06,32,8.50
2015,06,13,06,33,8.50
2015,06,13,06,34,8.50
2015,06,13,06,35,8.60
2015,06,13,06,36,8.60
2015,06,13,06,37,8.60
2015,06,13,06,38,8.60
2015,06,13,06,39,8.70
2015,06,13,06,40,8.70
2015,06,13,06,41,8.70
2015,06,13,06,42,8.80
2015,06,13,06,43,8.80
2015,06,13,06,44,8.80
2015,06,13,06,45,8.90
2015,06,13,06,46,8.90
2015,06,13,06,47,8.90
2015,06,13,06,48,8.90
2015,06,13,06,49,9.00
2015,06,13,06,50,9.00
2015,06,13,06,51,9.10
2015,06,13,06,52,9.10
2015,06,13,06,53,9.10
2015,06,13,06,54,9.20
2015,06,13,06,55,9.20
2015,06,13,06,56,9.30
2015,06,13,06,57,9.30
2015,06,13,06,58,9.40
2015,06,13,06,59,9.40
2015,06,13,07,00,9.40
2015,06,13,07,01,9.50
2015,06,13,07,02,9.50
2015,06,13,07,03,9.60
2015,06,13,07,04,9.60
2015,06,13,07,05,9.60
2015,06,13,07,06,9.70
2015,06,13,07,07,9.70
2015,06,13,07,08,9.80
2015,06,13,07,09,9.80
2015,06,13,07,10,9.80
2015,06,13,07,11,9.90
2015,06,13,07,12,9.90
2015,06,13,07,13,10.00
2015,06,13,07,14,10.00
2015,06,13,07,15,10.00
2015,06,13,07,16,10.10
2015,06,13,07,17,10.10
2015,06,13,07,18,10.20
2015,06,13,07,19,10.20
2015,06,13,07,20,10.30
2015,06,13,07,21,10.30
2015,06,13,07,22,10.40
2015,06,13,07,23,10.50
2015,06,13,07,24,10.50
2015,06,13,07,25,10.60
2015,06,13,07,26,10.70
2015,06,13,07,27,10.70
2015,06,13,07,28,10.80
2015,06,13,07,29,10.80
2015,06,13,07,30,10.80
2015,06,13,07,31,10.80
2015,06,13,07,32,10.90
2015,06,13,07,33,10.90
2015,06,13,07,34,10.90
2015,06,13,07,35,11.00
2015,06,13,07,36,11.10
2015,06,13,07,37,11.10
2015,06,13,07,38,11.20
2015,06,13,07,39,11.30
2015,06,13,07,40,11.30
2015,06,13,07,41,11.30
2015,06,13,07,42,11.40
2015,06,13,07,43,11.50
2015,06,13,07,44,11.50
2015,06,13,07,45,11.60
2015,06,13,07,46,11.60
2015,06,13,07,47,11.70
2015,06,13,07,48,11.70
2015,06,13,07,49,11.80
2015,06,13,07,50,11.80
2015,06,13,07,51,11.90
2015,06,13,07,52,11.90
2015,06,13,07,53,12.00
2015,06,13,07,54,12.00
2015,06,13,07,55,12.10
2015,06,13,07,56,12.20
2015,06,13,07,57,12.20
2015,06,13,07,58,12.30
2015,06,13,07,59,12.30
2015,06,13,08,00,12.40
2015,06,13,08,01,12.40
2015,06,13,08,02,12.40
2015,06,13,08,03,12.50
2015,06,13,08,04,12.50
2015,06,13,08,05,12.50
2015,06,13,08,06,12.50
2015,06,13,08,07,12.60
2015,06,13,08,08,12.60
2015,06,13,08,09,12.60
2015,06,13,08,10,12.70
2015,06,13,08,11,12.80
2015,06,13,08,12,12.80
2015,06,13,08,13,12.80
2015,06,13,08,14,12.90
2015,06,13,08,15,12.90
2015,06,13,08,16,12.90
2015,06,13,08,17,12.90
2015,06,13,08,18,13.00
2015,06,13,08,19,13.00
2015,06,13,08,20,13.10
2015,06,13,08,21,13.10
2015,06,13,08,22,13.10
2015,06,13,08,23,13.20
2015,06,13,08,24,13.20
2015,06,13,08,25,13.30
2015,06,13,08,26,13.30
2015,06,13,08,27,13.40
2015,06,13,08,28,13.40
2015,06,13,08,29,13.50
2015,06,13,08,30,13.60
2015,06,13,08,31,13.60
2015,06,13,08,32,13.60
2015,06,13,08,33,13.70
2015,06,13,08,34,13.70
2015,06,13,08,35,13.80
2015,06,13,08,36,13.90
2015,06,13,08,37,13.90
2015,06,13,08,38,14.00
2015,06,13,08,39,14.10
2015,06,13,08,40,14.20
2015,06,13,08,41,14.30
2015,06,13,08,42,14.40
2015,06,13,08,43,14.50
2015,06,13,08,44,14.50
2015,06,13,08,45,14.60
2015,06,13,08,46,14.70
2015,06,13,08,47,14.80
2015,06,13,08,48,14.90
2015,06,13,08,49,14.90
2015,06,13,08,50,15.00
2015,06,13,08,51,15.10
2015,06,13,08,52,15.10
2015,06,13,08,53,15.10
2015,06,13,08,54,15.10
2015,06,13,08,55,15.20
2015,06,13,08,56,15.20
2015,06,13,08,57,15.20
2015,06,13,08,58,15.20
2015,06,13,08,59,15.30
2015,06,13,09,00,15.30
2015,06,13,09,01,15.40
2015,06,13,09,02,15.50
2015,06,13,09,03,15.50
2015,06,13,09,04,15.60
2015,06,13,09,05,15.60
2015,06,13,09,06,15.70
2015,06,13,09,07,15.70
2015,06,13,09,08,15.80
2015,06,13,09,09,15.80
2015,06,13,09,10,15.90
2015,06,13,09,11,15.90
2015,06,13,09,12,16.00
2015,06,13,09,13,16.10
2015,06,13,09,14,16.10
2015,06,13,09,15,16.10
2015,06,13,09,16,16.20
2015,06,13,09,17,16.30
2015,06,13,09,18,16.30
2015,06,13,09,19,16.40
2015,06,13,09,20,16.40
2015,06,13,09,21,16.40
2015,06,13,09,22,16.40
2015,06,13,09,23,16.40
2015,06,13,09,24,16.30
2015,06,13,09,25,16.20
2015,06,13,09,26,16.20
2015,06,13,09,27,16.10
2015,06,13,09,28,16.20
2015,06,13,09,29,16.20
2015,06,13,09,30,16.20
2015,06,13,09,31,16.30
2015,06,13,09,32,16.40
2015,06,13,09,33,16.40
2015,06,13,09,34,16.50
2015,06,13,09,35,16.60
2015,06,13,09,36,16.70
2015,06,13,09,37,16.70
2015,06,13,09,38,16.70
2015,06,13,09,39,16.80
2015,06,13,09,40,16.80
2015,06,13,09,41,16.90
2015,06,13,09,42,17.00
2015,06,13,09,43,17.00
2015,06,13,09,44,17.10
2015,06,13,09,45,17.20
2015,06,13,09,46,17.30
2015,06,13,09,47,17.30
2015,06,13,09,48,17.30
2015,06,13,09,49,17.30
2015,06,13,09,50,17.30
2015,06,13,09,51,17.30
2015,06,13,09,52,17.30
2015,06,13,09,53,17.30
2015,06,13,09,54,17.30
2015,06,13,09,55,17.30
2015,06,13,09,56,17.30
2015,06,13,09,57,17.30
2015,06,13,09,58,17.30
2015,06,13,09,59,17.20
2015,06,13,10,00,17.20
2015,06,13,10,01,17.10
2015,06,13,10,02,17.10
2015,06,13,10,03,17.10
2015,06,13,10,04,17.10
2015,06,13,10,05,17.10
2015,06,13,10,06,17.10
2015,06,13,10,07,17.10
2015,06,13,10,08,17.10
2015,06,13,10,09,17.10
2015,06,13,10,10,17.10
2015,06,13,10,11,17.20
2015,06,13,10,12,17.20
2015,06,13,10,13,17.20
2015,06,13,10,14,17.30
2015,06,13,10,15,17.30
2015,06,13,10,16,17.30
2015,06,13,10,17,17.40
2015,06,13,10,18,17.50
2015,06,13,10,19,17.50
2015,06,13,10,20,17.50
2015,06,13,10,21,17.50
2015,06,13,10,22,17.50
2015,06,13,10,23,17.60
2015,06,13,10,24,17.60
2015,06,13,10,25,17.60
2015,06,13,10,26,17.70
2015,06,13,10,27,17.70
2015,06,13,10,28,17.70
2015,06,13,10,29,17.70
2015,06,13,10,30,17.80
2015,06,13,10,31,17.80
2015,06,13,10,32,17.80
2015,06,13,10,33,17.80
2015,06,13,10,34,17.80
2015,06,13,10,35,17.80
2015,06,13,10,36,17.90
2015,06,13,10,37,17.90
2015,06,13,10,38,17.80
2015,06,13,10,39,17.80
2015,06,13,10,40,17.80
2015,06,13,10,41,17.80
2015,06,13,10,42,17.80
2015,06,13,10,43,17.80
2015,06,13,10,44,17.80
2015,06,13,10,45,17.80
2015,06,13,10,46,17.80
2015,06,13,10,47,17.80
2015,06,13,10,48,17.90
2015,06,13,10,49,17.90
2015,06,13,10,50,17.90
2015,06,13,10,51,17.90
2015,06,13,10,52,17.90
2015,06,13,10,53,18.00
2015,06,13,10,54,18.10
2015,06,13,10,55,18.00
2015,06,13,10,56,18.00
2015,06,13,10,57,18.00
2015,06,13,10,58,17.90
2015,06,13,10,59,17.80
2015,06,13,11,00,17.80
2015,06,13,11,01,17.80
2015,06,13,11,02,17.80
2015,06,13,11,03,17.80
2015,06,13,11,04,17.80
2015,06,13,11,05,17.80
2015,06,13,11,06,17.80
2015,06,13,11,07,17.90
2015,06,13,11,08,18.00
2015,06,13,11,09,18.00
2015,06,13,11,10,18.10
2015,06,13,11,11,18.10
2015,06,13,11,12,18.10
2015,06,13,11,13,18.10
2015,06,13,11,14,18.20
2015,06,13,11,15,18.20
2015,06,13,11,16,18.20
2015,06,13,11,17,18.10
2015,06,13,11,18,18.10
2015,06,13,11,19,18.10
2015,06,13,11,20,18.10
2015,06,13,11,21,18.20
2015,06,13,11,22,18.20
2015,06,13,11,23,18.30
2015,06,13,11,24,18.30
2015,06,13,11,25,18.30
2015,06,13,11,26,18.20
2015,06,13,11,27,18.20
2015,06,13,11,28,18.20
2015,06,13,11,29,18.30
2015,06,13,11,30,18.30
2015,06,13,11,31,18.40
2015,06,13,11,32,18.40
2015,06,13,11,33,18.40
2015,06,13,11,34,18.40
2015,06,13,11,35,18.40
2015,06,13,11,36,18.40
2015,06,13,11,37,18.40
2015,06,13,11,38,18.50
2015,06,13,11,39,18.50
2015,06,13,11,40,18.60
2015,06,13,11,41,18.60
2015,06,13,11,42,18.70
2015,06,13,11,43,18.70
2015,06,13,11,44,18.70
2015,06,13,11,45,18.70
2015,06,13,11,46,18.70
2015,06,13,11,47,18.70
2015,06,13,11,48,18.70
2015,06,13,11,49,18.60
2015,06,13,11,50,18.60
2015,06,13,11,51,18.70
2015,06,13,11,52,18.70
2015,06,13,11,53,18.80
2015,06,13,11,54,18.80
2015,06,13,11,55,18.80
2015,06,13,11,56,18.80
2015,06,13,11,57,18.80
2015,06,13,11,58,18.80
2015,06,13,11,59,18.80
2015,06,13,12,00,18.80
2015,06,13,12,01,18.80
2015,06,13,12,02,18.80
2015,06,13,12,03,18.80
2015,06,13,12,04,18.90
2015,06,13,12,05,19.10
2015,06,13,12,06,19.20
2015,06,13,12,07,19.30
2015,06,13,12,08,19.40
2015,06,13,12,09,19.40
2015,06,13,12,10,19.60
2015,06,13,12,11,19.70
2015,06,13,12,12,19.70
2015,06,13,12,13,19.80
2015,06,13,12,14,19.80
2015,06,13,12,15,19.80
2015,06,13,12,16,19.80
2015,06,13,12,17,19.80
2015,06,13,12,18,19.80
2015,06,13,12,19,19.80
2015,06,13,12,20,19.80
2015,06,13,12,21,19.80
2015,06,13,12,22,19.80
2015,06,13,12,23,19.80
2015,06,13,12,24,19.80
2015,06,13,12,25,19.70
2015,06,13,12,26,19.70
2015,06,13,12,27,19.60
2015,06,13,12,28,19.60
2015,06,13,12,29,19.50
2015,06,13,12,30,19.50
2015,06,13,12,31,19.40
2015,06,13,12,32,19.30
2015,06,13,12,33,19.20
2015,06,13,12,34,19.10
2015,06,13,12,35,19.00
2015,06,13,12,36,19.00
2015,06,13,12,37,18.90
2015,06,13,12,38,18.80
2015,06,13,12,39,18.70
2015,06,13,12,40,18.70
2015,06,13,12,41,18.70
2015,06,13,12,42,18.80
2015,06,13,12,43,18.80
2015,06,13,12,44,18.90
2015,06,13,12,45,18.90
2015,06,13,12,46,18.90
2015,06,13,12,47,18.90
2015,06,13,12,48,18.80
2015,06,13,12,49,18.80
2015,06,13,12,50,18.70
2015,06,13,12,51,18.70
2015,06,13,12,52,18.70
2015,06,13,12,53,18.70
2015,06,13,12,54,18.70
2015,06,13,12,55,18.70
2015,06,13,12,56,18.70
2015,06,13,12,57,18.80
2015,06,13,12,58,18.80
2015,06,13,12,59,18.90
2015,06,13,13,00,18.90
2015,06,13,13,01,19.00
2015,06,13,13,02,19.00
2015,06,13,13,03,19.10
2015,06,13,13,04,19.10
2015,06,13,13,05,19.00
2015,06,13,13,06,19.00
2015,06,13,13,07,19.00
2015,06,13,13,08,19.00
2015,06,13,13,09,19.10
2015,06,13,13,10,19.10
2015,06,13,13,11,19.10
2015,06,13,13,12,19.10
2015,06,13,13,13,19.20
2015,06,13,13,14,19.20
2015,06,13,13,15,19.30
2015,06,13,13,16,19.30
2015,06,13,13,17,19.30
2015,06,13,13,18,19.30
2015,06,13,13,19,19.30
2015,06,13,13,20,19.30
2015,06,13,13,21,19.30
2015,06,13,13,22,19.40
2015,06,13,13,23,19.40
2015,06,13,13,24,19.30
2015,06,13,13,25,19.30
2015,06,13,13,26,19.20
2015,06,13,13,27,19.20
2015,06,13,13,28,19.20
2015,06,13,13,29,19.20
2015,06,13,13,30,19.30
2015,06,13,13,31,19.40
2015,06,13,13,32,19.40
2015,06,13,13,33,19.40
2015,06,13,13,34,19.40
2015,06,13,13,35,19.40
2015,06,13,13,36,19.40
2015,06,13,13,37,19.30
2015,06,13,13,38,19.20
2015,06,13,13,39,19.20
2015,06,13,13,40,19.20
2015,06,13,13,41,19.20
2015,06,13,13,42,19.10
2015,06,13,13,43,19.10
2015,06,13,13,44,19.10
2015,06,13,13,45,19.10
2015,06,13,13,46,19.20
2015,06,13,13,47,19.20
2015,06,13,13,48,19.30
2015,06,13,13,49,19.30
2015,06,13,13,50,19.30
2015,06,13,13,51,19.20
2015,06,13,13,52,19.10
2015,06,13,13,53,19.10
2015,06,13,13,54,19.00
2015,06,13,13,55,19.00
2015,06,13,13,56,19.10
2015,06,13,13,57,19.20
2015,06,13,13,58,19.20
2015,06,13,13,59,19.20
2015,06,13,14,00,19.20
2015,06,13,14,01,19.10
2015,06,13,14,02,19.10
2015,06,13,14,03,19.10
2015,06,13,14,04,19.10
2015,06,13,14,05,19.10
2015,06,13,14,06,19.10
2015,06,13,14,07,19.10
2015,06,13,14,08,19.10
2015,06,13,14,09,19.10
2015,06,13,14,10,19.10
2015,06,13,14,11,19.10
2015,06,13,14,12,19.10
2015,06,13,14,13,19.20
2015,06,13,14,14,19.20
2015,06,13,14,15,19.10
2015,06,13,14,16,19.10
2015,06,13,14,17,19.10
2015,06,13,14,18,19.10
2015,06,13,14,19,19.10
2015,06,13,14,20,19.20
2015,06,13,14,21,19.20
2015,06,13,14,22,19.30
2015,06,13,14,23,19.40
2015,06,13,14,24,19.40
2015,06,13,14,25,19.40
2015,06,13,14,26,19.40
2015,06,13,14,27,19.30
2015,06,13,14,28,19.30
2015,06,13,14,29,19.30
2015,06,13,14,30,19.30
2015,06,13,14,31,19.20
2015,06,13,14,32,19.20
2015,06,13,14,33,19.20
2015,06,13,14,34,19.10
2015,06,13,14,35,19.10
2015,06,13,14,36,19.10
2015,06,13,14,37,19.10
2015,06,13,14,38,19.10
2015,06,13,14,39,19.20
2015,06,13,14,40,19.30
2015,06,13,14,41,19.30
2015,06,13,14,42,19.40
2015,06,13,14,43,19.40
2015,06,13,14,44,19.40
2015,06,13,14,45,19.50
2015,06,13,14,46,19.50
2015,06,13,14,47,19.50
2015,06,13,14,48,19.50
2015,06,13,14,49,19.40
2015,06,13,14,50,19.40
2015,06,13,14,51,19.30
2015,06,13,14,52,19.30
2015,06,13,14,53,19.30
2015,06,13,14,54,19.40
2015,06,13,14,55,19.50
2015,06,13,14,56,19.60
2015,06,13,14,57,19.60
2015,06,13,14,58,19.60
2015,06,13,14,59,19.60
2015,06,13,15,00,19.60
2015,06,13,15,01,19.60
2015,06,13,15,02,19.60
2015,06,13,15,03,19.60
2015,06,13,15,04,19.60
2015,06,13,15,05,19.60
2015,06,13,15,06,19.60
2015,06,13,15,07,19.50
2015,06,13,15,08,19.50
2015,06,13,15,09,19.40
2015,06,13,15,10,19.40
2015,06,13,15,11,19.40
2015,06,13,15,12,19.40
2015,06,13,15,13,19.40
2015,06,13,15,14,19.40
2015,06,13,15,15,19.40
2015,06,13,15,16,19.50
2015,06,13,15,17,19.50
2015,06,13,15,18,19.60
2015,06,13,15,19,19.70
2015,06,13,15,20,19.80
2015,06,13,15,21,19.80
2015,06,13,15,22,19.80
2015,06,13,15,23,19.80
2015,06,13,15,24,19.80
2015,06,13,15,25,19.90
2015,06,13,15,26,19.90
2015,06,13,15,27,19.90
2015,06,13,15,28,19.80
2015,06,13,15,29,19.70
2015,06,13,15,30,19.60
2015,06,13,15,31,19.60
2015,06,13,15,32,19.60
2015,06,13,15,33,19.60
2015,06,13,15,34,19.60
2015,06,13,15,35,19.60
2015,06,13,15,36,19.50
2015,06,13,15,37,19.50
2015,06,13,15,38,19.40
2015,06,13,15,39,19.40
2015,06,13,15,40,19.40
2015,06,13,15,41,19.50
2015,06,13,15,42,19.50
2015,06,13,15,43,19.60
2015,06,13,15,44,19.70
2015,06,13,15,45,19.90
2015,06,13,15,46,20.00
2015,06,13,15,47,20.10
2015,06,13,15,48,20.20
2015,06,13,15,49,20.30
2015,06,13,15,50,20.30
2015,06,13,15,51,20.40
2015,06,13,15,52,20.40
2015,06,13,15,53,20.40
2015,06,13,15,54,20.40
2015,06,13,15,55,20.40
2015,06,13,15,56,20.50
2015,06,13,15,57,20.60
2015,06,13,15,58,20.80
2015,06,13,15,59,20.80
2015,06,13,16,00,20.90
2015,06,13,16,01,20.90
2015,06,13,16,02,20.80
2015,06,13,16,03,20.80
2015,06,13,16,04,20.70
2015,06,13,16,05,20.70
2015,06,13,16,06,20.70
2015,06,13,16,07,20.80
2015,06,13,16,08,20.80
2015,06,13,16,09,20.90
2015,06,13,16,10,20.90
2015,06,13,16,11,20.80
2015,06,13,16,12,20.80
2015,06,13,16,13,20.70
2015,06,13,16,14,20.70
2015,06,13,16,15,20.70
2015,06,13,16,16,20.70
2015,06,13,16,17,20.70
2015,06,13,16,18,20.80
2015,06,13,16,19,20.80
2015,06,13,16,20,20.90
2015,06,13,16,21,20.90
2015,06,13,16,22,21.00
2015,06,13,16,23,21.00
2015,06,13,16,24,20.90
2015,06,13,16,25,20.90
2015,06,13,16,26,20.80
2015,06,13,16,27,20.80
2015,06,13,16,28,20.70
2015,06,13,16,29,20.60
2015,06,13,16,30,20.60
2015,06,13,16,31,20.50
2015,06,13,16,32,20.50
2015,06,13,16,33,20.50
2015,06,13,16,34,20.60
2015,06,13,16,35,20.60
2015,06,13,16,36,20.50
2015,06,13,16,37,20.50
2015,06,13,16,38,20.60
2015,06,13,16,39,20.60
2015,06,13,16,40,20.60
2015,06,13,16,41,20.60
2015,06,13,16,42,20.50
2015,06,13,16,43,20.50
2015,06,13,16,44,20.50
2015,06,13,16,45,20.50
2015,06,13,16,46,20.60
2015,06,13,16,47,20.60
2015,06,13,16,48,20.60
2015,06,13,16,49,20.60
2015,06,13,16,50,20.60
2015,06,13,16,51,20.60
2015,06,13,16,52,20.50
2015,06,13,16,53,20.50
2015,06,13,16,54,20.40
2015,06,13,16,55,20.40
2015,06,13,16,56,20.30
2015,06,13,16,57,20.30
2015,06,13,16,58,20.20
2015,06,13,16,59,20.20
2015,06,13,17,00,20.20
2015,06,13,17,01,20.20
2015,06,13,17,02,20.20
2015,06,13,17,03,20.30
2015,06,13,17,04,20.40
2015,06,13,17,05,20.50
2015,06,13,17,06,20.50
2015,06,13,17,07,20.60
2015,06,13,17,08,20.70
2015,06,13,17,09,20.70
2015,06,13,17,10,20.70
2015,06,13,17,11,20.70
2015,06,13,17,12,20.70
2015,06,13,17,13,20.80
2015,06,13,17,14,20.80
2015,06,13,17,15,20.80
2015,06,13,17,16,20.80
2015,06,13,17,17,20.70
2015,06,13,17,18,20.70
2015,06,13,17,19,20.60
2015,06,13,17,20,20.60
2015,06,13,17,21,20.50
2015,06,13,17,22,20.50
2015,06,13,17,23,20.40
2015,06,13,17,24,20.40
2015,06,13,17,25,20.40
2015,06,13,17,26,20.50
2015,06,13,17,27,20.60
2015,06,13,17,28,20.60
2015,06,13,17,29,20.70
2015,06,13,17,30,20.80
2015,06,13,17,31,20.90
2015,06,13,17,32,20.90